Regional Weather Roundup
Issued by NWS

Home | Current Version | Previous Version | Graphics & Text | Print | Product List | Glossary On
Versions: 1 2 3 4 5 6 7 8 9 10 11 12 13 14 15 16 17 18 19 20 21 22 23 24 25 26 27 28 29 30 31 32 33 34 35 36 37 38 39 40 41 42 43 44 45 46 47 48 49 50
000
ASUS43 KOAX 260302
RWRNE

WEATHER ROUNDUP FOR NEBRASKA
NATIONAL WEATHER SERVICE OMAHA NE
1000 PM CDT WED MAY 25 2016

NOTES: SATELLITE DATA IS BEING USED TO AUGMENT CLOUD COVER ABOVE
       12000 FEET.
       "FAIR" INDICATES FEW OR NO CLOUDS BELOW 12,000 FEET WITH NO
       SIGNIFICANT WEATHER AND/OR OBSTRUCTIONS TO VISIBILITY.

  * THESE STATIONS DO NOT REPORT WEATHER SUCH AS RAIN...SNOW OR FOG.

NEZ001>004-019>022-054>056-260400-
NEBRASKA PANHANDLE

CITY           SKY/WX    TMP DP  RH WIND       PRES   REMARKS
SCOTTSBLUFF    CLOUDY    61  44  53 NE12      29.93R
ALLIANCE       CLOUDY    52  45  77 E9        29.92F
CHADRON        CLEAR     52  44  74 CALM      29.90S
SIDNEY         PTCLDY    51  46  83 S7        29.96S
$$

NEZ057>060-069>072-079>082-260400-
SOUTHWEST NEBRASKA

CITY           SKY/WX    TMP DP  RH WIND       PRES   REMARKS
NORTH PLATTE   CLOUDY    59  51  75 S8        29.90F
IMPERIAL       CLOUDY    57  51  80 N9        29.94R
LEXINGTON      CLOUDY    59  53  79 NE13      29.94F
MCCOOK         CLOUDY    59  51  75 VRB5      29.95R
$$

NEZ005>010-023>029-035>040-094-260400-
NORTH CENTRAL NEBRASKA

CITY           SKY/WX    TMP DP  RH WIND       PRES   REMARKS
VALENTINE      CLEAR     60  46  59 W9        29.85S
AINSWORTH      CLOUDY    58  48  68 SW7       29.87S
BROKEN BOW     CLOUDY    63  49  60 E12G25    29.89F
ORD            CLOUDY    68  57  68 SW15G25   29.89R
$$

NEZ041-046>049-061>064-073>077-083>087-260400-
SOUTH CENTRAL NEBRASKA

CITY           SKY/WX    TMP DP  RH WIND       PRES   REMARKS
GRAND ISLAND   CLOUDY    69  64  84 S7        29.86R
HASTINGS       CLEAR     68  63  84 CALM      29.87R
KEARNEY *      CLOUDY    72  63  73 W35G43    29.96R
YORK           CLOUDY    70  66  88 CALM      29.86R
$$

NEZ011>018-030>034-042>045-260400-
NORTHEAST NEBRASKA

CITY           SKY/WX    TMP DP  RH WIND       PRES   REMARKS
NORFOLK        CLOUDY    71  59  65 S8        29.80S
ALBION         CLOUDY    68  60  75 CALM      29.83R
BLAIR          MOCLDY    72  66  83 S5        29.84R
FREMONT        PTCLDY    71  65  83 S6        29.84R
TEKAMAH        PTCLDY    71  64  78 S8        29.81R
$$

NEZ050>053-065>068-078-088>093-260400-
SOUTHEAST NEBRASKA

CITY           SKY/WX    TMP DP  RH WIND       PRES   REMARKS
LINCOLN        MOCLDY    74  68  81 E5        29.84R
OMAHA EPPLEY   PTCLDY    71  66  84 SE7       29.83R
FALLS CITY     CLOUDY    75  68  78 SE7       29.82S
PLATTSMOUTH    CLOUDY    73  70  90 SE3       29.84S
$$

NEZ044-045-051>053-067-260400-
OMAHA AREA

CITY           SKY/WX    TMP DP  RH WIND       PRES   REMARKS
OMAHA EPPLEY   PTCLDY    71  66  84 SE7       29.83R
BLAIR          MOCLDY    72  66  83 S5        29.84R
FREMONT        PTCLDY    71  65  83 S6        29.84R
OFFUTT AFB     PTCLDY    68  68 100 E2        29.83R
PLATTSMOUTH    CLOUDY    73  70  90 SE3       29.84S
$$




USA.gov is the U.S. government's official web portal to all federal, state and local government web resources and services.